USA 134

Last updated on Tue Sep 16 2025 00:02:45 GMT+0000 (Coordinated Universal Time)

1 25019U 97065A 25258.39895759 -.00000074 00000+0 00000+0 0 9991 2 25019 12.4555 23.7178 0002985 227.4305 134.6310 1.00270660 30201
UTC large
Height (km)
Speed (km/s)
/
Latitude / Longitude
Inclination (degrees)
Orbital Period (minutes)
Azimuth
Elevation
Range (km)
Doppler Factor

Next 0 passes for location: London (51.5072 / 0.1276)

Sorry there are no passes over London.